[[{"header":{"parameterUnit":"m.s-1","parameterCategory":1,"la1":30.2991,"la2":30.254,"lo1":-89.0895,"lo2":-89.0444,"dy":0.0017,"dx":0.0017,"nx":28,"ny":28,"refTime":"2024-04-12T03:00:00:Z","depth":0,"parameterNumber":2,"parameterNumberName":"U-component_of_WINDS"},"data":[0,0,0,0,0,0,0,0,0,0,0,0,0,0,0,0,0,0,0,0,0,0,0,0,0,0,0,0,0,0,0,0,0,0,0,0,0,0,0,0,0,0,0,0,0,0,0,0,0,0,0,0,0,0,0,0,0,0,3.1354,3.1355,0,3.1442,3.1443,3.1444,3.1408,3.1406,3.1404,3.1402,3.1494,3.1498,3.1502,0,0,0,0,0,0,0,0,0,0,0,0,0,3.1155,3.1159,3.1354,3.1355,3.1356,3.1442,3.1443,3.1444,3.1408,3.1406,3.1403,3.1401,3.1492,3.1497,3.1503,0,0,0,0,0,0,0,0,0,0,0,0,0,3.1243,3.116,3.1353,3.1348,3.1349,3.1442,3.1443,3.1445,3.1409,3.1406,3.1403,3.14,3.149,3.1497,3.1503,3.1607,0,0,3.1524,3.1526,0,0,0,0,0,0,0,0,3.1238,3.125,3.1348,3.1349,3.1349,3.1411,3.1407,3.1499,3.141,3.1386,3.1402,3.1398,3.1469,3.1477,3.15,3.1612,3.1616,3.1524,3.1528,3.1531,3.1533,0,0,0,0,0,0,0,3.1232,3.1246,3.1389,3.1349,3.135,3.1342,3.1351,3.1424,3.1444,3.1388,3.1385,3.1396,3.1468,3.1494,3.1502,3.1617,3.1524,3.153,3.1534,3.1536,3.182,3.1823,0,0,0,0,0,0,3.1225,3.1241,3.1386,3.1391,3.1284,3.1348,3.1358,3.1394,3.1443,3.1447,3.1399,3.1394,3.1484,3.1495,3.1505,3.1631,3.1531,3.1537,3.1541,3.1816,3.182,3.1824,0,0,0,0,0,0,3.1221,3.1238,3.1382,3.1316,3.1333,3.1355,3.1396,3.1398,3.1423,3.1451,3.1455,3.1421,3.1482,3.1496,3.1583,3.1634,3.154,3.1546,3.1812,3.1817,3.1822,3.1883,0,0,0,0,0,0,3.1216,3.1237,3.1276,3.1317,3.1337,3.1457,3.1399,3.1402,3.1435,3.1429,3.1473,3.1478,3.1481,3.1573,3.1589,3.1641,3.1551,3.1807,3.1814,3.1821,3.1876,3.189,3.1901,0,0,0,0,0,3.1209,3.129,3.1278,3.1296,3.1386,3.146,3.1472,3.1474,3.1439,3.1479,3.1497,3.1476,3.1626,3.1582,3.16,3.1655,3.1804,3.1812,3.182,3.1871,3.1887,3.1901,0,0,0,0,0,0,3.1255,3.1295,3.1283,3.1379,3.1417,3.1454,3.1504,3.149,3.1539,3.1532,3.1532,3.1543,3.1632,3.1652,3.1603,3.1759,3.171,3.1722,3.1742,3.1758,3.177,3.1763,3.1557,0,0,0,0,0,3.1276,3.1332,3.1365,3.1447,3.1466,3.1482,3.1515,3.1513,3.1552,3.1567,3.1592,3.1631,3.1687,3.1723,3.1776,3.1879,3.1889,3.1926,3.1938,3.1948,3.1959,3.2016,3.2033,3.185,3.185,3.185,0,0,3.1321,3.135,3.1385,3.1457,3.1485,3.1545,3.1496,3.156,3.1604,3.1577,3.166,3.168,3.1724,3.1819,3.1863,3.1839,3.2011,3.1959,3.1966,3.1971,3.2026,3.2043,3.2058,3.1856,3.1855,3.1854,0,0,3.1432,3.146,3.1531,3.1562,3.1606,3.1616,3.1634,3.1674,3.1686,3.1769,3.1751,3.1804,3.19,3.1932,3.1961,3.2087,3.207,3.2104,3.2168,3.2224,3.2238,3.2251,3.2296,3.2313,3.2114,3.2115,3.2115,0,3.1482,3.157,3.157,3.1636,3.1669,3.1648,3.1721,3.175,3.181,3.1833,3.1806,3.1927,3.1955,3.2058,3.2089,3.2113,3.2133,3.2099,3.2236,3.2249,3.2261,3.2304,3.2321,3.2118,3.2118,3.2118,3.2117,0,3.1629,3.1691,3.1744,3.1802,3.184,3.191,3.1922,3.1961,3.1956,3.197,3.2056,3.2089,3.2149,3.2173,3.2169,3.2277,3.2261,3.2235,3.2186,3.2282,3.2323,3.2339,3.2124,3.2123,3.2121,3.212,0,0,3.1771,3.1829,3.1849,3.1875,3.1924,3.1971,3.2041,3.2099,3.2133,3.2176,3.2234,3.2317,3.2294,3.2327,3.2326,3.2375,3.2474,3.2344,3.2345,3.2367,3.2596,3.2615,3.2634,3.2464,3.2467,3.2469,3.2592,0,3.1886,3.2007,3.201,3.2121,3.2178,3.216,3.2221,3.2257,3.2273,3.2324,3.2341,3.24,3.2364,3.2384,3.2432,3.2452,3.252,3.2443,3.2519,3.2521,3.2508,3.2655,3.2675,3.2789,3.2608,3.2611,3.2613,0,3.2036,3.2084,3.22,3.2242,3.2266,3.232,3.2374,3.2424,3.2466,3.2473,3.2511,3.2504,3.2576,3.2525,3.2625,3.2573,3.2604,3.2619,3.2623,3.263,3.2572,3.2666,3.2825,3.2842,3.2638,3.2636,3.2634,0,3.2128,3.2221,3.2303,3.2327,3.2377,3.2416,3.2438,3.2477,3.2513,3.2561,3.2584,3.264,3.2671,3.2715,3.2724,3.2685,3.2824,3.2773,3.2833,3.2833,3.2862,3.286,3.3029,3.2883,3.2883,3.2882,3.2882,0,3.2256,3.2328,3.2345,3.2396,3.2477,3.248,3.2561,3.2581,3.2616,3.2671,3.2659,3.271,3.2719,3.2773,3.2781,3.2863,3.2877,3.2886,3.2887,3.2887,3.2886,3.2907,3.2899,3.2887,3.2886,3.2885,3.2884,0,3.2372,3.2386,3.2474,3.2515,3.2527,3.2585,3.262,3.2669,3.2684,3.2753,3.277,3.2793,3.2856,3.287,3.2945,3.295,3.3048,3.3041,3.3033,3.3033,3.3092,3.3086,3.328,3.3306,3.3143,3.3144,3.3146,0,3.2452,3.2508,3.2555,3.259,3.2615,3.2673,3.2709,3.2716,3.2754,3.2807,3.285,3.2912,3.2962,3.3065,3.3088,3.3146,3.3141,3.3205,3.3149,3.3148,3.3142,3.3139,3.3145,3.3215,3.3217,3.3219,3.322,0,3.2594,3.2599,3.2651,3.2707,3.2751,3.2795,3.2837,3.2867,3.288,3.2924,3.2988,3.3027,3.3104,3.3167,3.3225,3.3249,3.3237,3.3237,3.3254,3.3254,3.3247,3.3252,3.3062,3.3233,3.3231,3.323,3.323,3.3229,3.2695,3.2743,3.2784,3.2844,3.2876,3.2916,3.2964,3.2985,3.3039,3.3102,3.3103,3.3174,3.3217,3.3294,3.3322,3.3378,3.3358,3.3383,3.3389,3.3395,3.34,3.3239,3.3389,3.3389,3.3388,3.3388,3.3388,0,3.2836,3.2862,3.2916,3.2976,3.3023,3.3008,3.3054,3.3094,3.3157,3.3197,3.3247,3.3322,3.3383,3.3412,3.3472,3.3512,3.3508,3.3528,3.3524,3.353,3.3414,3.3394,3.353,3.353,3.353,3.353,3.353,3.353,3.2915,3.2996,3.3006,3.3105,3.313,3.3199,3.3227,3.3264,3.3297,3.3381,3.3431,3.345,3.3487,3.355,3.3605,3.3613,3.3635,3.3658,3.3662,3.3553,3.3538,3.3525,3.3505,3.3663,3.3663,3.3774,3.3775,3.3776]},{"header":{"parameterUnit":"m.s-1","parameterCategory":1,"la1":30.2991,"la2":30.254,"lo1":-89.0895,"lo2":-89.0444,"dy":0.0017,"dx":0.0017,"nx":28,"ny":28,"refTime":"2024-04-12T03:00:00:Z","depth":0,"parameterNumber":3,"parameterNumberName":"V-component_of_WINDS"},"data":[0,0,0,0,0,0,0,0,0,0,0,0,0,0,0,0,0,0,0,0,0,0,0,0,0,0,0,0,0,0,0,0,0,0,0,0,0,0,0,0,0,0,0,0,0,0,0,0,0,0,0,0,0,0,0,0,0,0,-3.5325,-3.5326,0,-3.5437,-3.5438,-3.544,-3.5393,-3.5391,-3.5388,-3.5385,-3.5502,-3.5508,-3.5513,0,0,0,0,0,0,0,0,0,0,0,0,0,-3.5073,-3.5078,-3.5325,-3.5326,-3.5328,-3.5437,-3.5438,-3.544,-3.5394,-3.5391,-3.5387,-3.5384,-3.5501,-3.5507,-3.5514,0,0,0,0,0,0,0,0,0,0,0,0,0,-3.5184,-3.508,-3.5325,-3.5318,-3.5318,-3.5437,-3.5439,-3.544,-3.5395,-3.539,-3.5386,-3.5383,-3.5498,-3.5507,-3.5515,-3.5647,0,0,-3.5541,-3.5544,0,0,0,0,0,0,0,0,-3.5178,-3.5193,-3.5317,-3.5318,-3.5319,-3.5397,-3.5393,-3.551,-3.5396,-3.5366,-3.5385,-3.5381,-3.5471,-3.5481,-3.5511,-3.5653,-3.5658,-3.5541,-3.5546,-3.555,-3.5552,0,0,0,0,0,0,0,-3.517,-3.5188,-3.5369,-3.5319,-3.532,-3.531,-3.5321,-3.5415,-3.5439,-3.5368,-3.5365,-3.5379,-3.547,-3.5503,-3.5514,-3.5659,-3.5541,-3.5549,-3.5554,-3.5557,-3.5917,-3.5921,0,0,0,0,0,0,-3.5162,-3.5182,-3.5366,-3.5373,-3.5237,-3.5318,-3.533,-3.5376,-3.5438,-3.5444,-3.5382,-3.5376,-3.5491,-3.5504,-3.5517,-3.5678,-3.555,-3.5558,-3.5563,-3.5912,-3.5918,-3.5923,0,0,0,0,0,0,-3.5157,-3.5179,-3.5361,-3.5277,-3.5299,-3.5326,-3.5378,-3.5381,-3.5413,-3.5449,-3.5453,-3.5411,-3.5488,-3.5506,-3.5616,-3.5681,-3.5562,-3.5569,-3.5907,-3.5914,-3.592,-3.5998,0,0,0,0,0,0,-3.515,-3.5177,-3.5227,-3.5278,-3.5304,-3.5457,-3.5382,-3.5386,-3.5427,-3.5421,-3.5477,-3.5482,-3.5486,-3.5603,-3.5624,-3.569,-3.5576,-3.5901,-3.591,-3.5918,-3.599,-3.6007,-3.6021,0,0,0,0,0,-3.5141,-3.5245,-3.523,-3.5252,-3.5366,-3.5461,-3.5475,-3.5477,-3.5433,-3.5484,-3.5507,-3.5481,-3.567,-3.5615,-3.5638,-3.5708,-3.5897,-3.5908,-3.5918,-3.5983,-3.6003,-3.6021,0,0,0,0,0,0,-3.5201,-3.5251,-3.5235,-3.5358,-3.5406,-3.5453,-3.5517,-3.5499,-3.556,-3.5551,-3.5552,-3.5565,-3.5679,-3.5704,-3.5641,-3.584,-3.5777,-3.5792,-3.5819,-3.5839,-3.5854,-3.5846,-3.5583,0,0,0,0,0,-3.5228,-3.53,-3.534,-3.5445,-3.547,-3.5489,-3.553,-3.5528,-3.5577,-3.5597,-3.5628,-3.5677,-3.5748,-3.5795,-3.5862,-3.5993,-3.6006,-3.6053,-3.6068,-3.6081,-3.6094,-3.6167,-3.6189,-3.5956,-3.5956,-3.5956,0,0,-3.5286,-3.5322,-3.5368,-3.5458,-3.5494,-3.5569,-3.5506,-3.5588,-3.5644,-3.5609,-3.5715,-3.574,-3.5795,-3.5917,-3.5972,-3.5942,-3.6162,-3.6094,-3.6104,-3.611,-3.618,-3.6202,-3.6221,-3.5963,-3.5962,-3.5961,0,0,-3.543,-3.5464,-3.5556,-3.5593,-3.5649,-3.5662,-3.5684,-3.5734,-3.5749,-3.5855,-3.5831,-3.5898,-3.602,-3.606,-3.6097,-3.6257,-3.6236,-3.6279,-3.6361,-3.6432,-3.645,-3.6467,-3.6525,-3.6546,-3.6292,-3.6293,-3.6293,0,-3.5495,-3.5606,-3.5605,-3.5689,-3.573,-3.5702,-3.5796,-3.5833,-3.5908,-3.5937,-3.5902,-3.6055,-3.609,-3.6221,-3.626,-3.6291,-3.6317,-3.6273,-3.6448,-3.6464,-3.6479,-3.6535,-3.6557,-3.6298,-3.6297,-3.6296,-3.6296,0,-3.5684,-3.5762,-3.5829,-3.5902,-3.595,-3.6039,-3.6053,-3.6102,-3.6096,-3.6112,-3.6222,-3.6263,-3.6338,-3.6369,-3.6364,-3.6501,-3.648,-3.6447,-3.6384,-3.6507,-3.6559,-3.658,-3.6305,-3.6303,-3.6301,-3.63,0,0,-3.5868,-3.594,-3.5965,-3.5998,-3.6058,-3.6118,-3.6206,-3.6279,-3.6323,-3.6376,-3.645,-3.6554,-3.6524,-3.6565,-3.6564,-3.6627,-3.6753,-3.6586,-3.6587,-3.6616,-3.6907,-3.6933,-3.6957,-3.6738,-3.6742,-3.6746,-3.6903,0,-3.6017,-3.617,-3.6172,-3.6313,-3.6386,-3.6361,-3.6437,-3.6483,-3.6501,-3.6566,-3.6586,-3.6661,-3.6614,-3.664,-3.67,-3.6724,-3.6811,-3.6713,-3.6809,-3.6812,-3.6796,-3.6984,-3.7011,-3.7158,-3.6923,-3.6927,-3.6929,0,-3.6211,-3.627,-3.6418,-3.6468,-3.6499,-3.6568,-3.6636,-3.6698,-3.675,-3.6759,-3.6806,-3.6796,-3.6887,-3.6821,-3.6947,-3.688,-3.6919,-3.6937,-3.6943,-3.6953,-3.6879,-3.7,-3.7204,-3.7227,-3.6961,-3.6959,-3.6956,0,-3.6332,-3.6448,-3.6552,-3.6581,-3.6642,-3.6692,-3.6719,-3.6767,-3.6811,-3.6871,-3.69,-3.697,-3.7009,-3.7064,-3.7073,-3.7024,-3.72,-3.7135,-3.7211,-3.7211,-3.725,-3.7247,-3.7464,-3.7274,-3.7274,-3.7273,-3.7273,0,-3.6498,-3.659,-3.6607,-3.6672,-3.6774,-3.6777,-3.6879,-3.6903,-3.6946,-3.7015,-3.6997,-3.7063,-3.7071,-3.7139,-3.7148,-3.7251,-3.7269,-3.7279,-3.7281,-3.7282,-3.728,-3.7308,-3.7298,-3.7279,-3.7278,-3.7277,-3.7276,0,-3.6651,-3.6666,-3.6778,-3.6826,-3.6841,-3.6914,-3.6957,-3.7019,-3.7035,-3.7123,-3.7144,-3.7171,-3.725,-3.7265,-3.7359,-3.7364,-3.7488,-3.7479,-3.7471,-3.747,-3.7546,-3.7539,-3.7789,-3.7822,-3.761,-3.7612,-3.7613,0,-3.6756,-3.6826,-3.6882,-3.6927,-3.6957,-3.703,-3.7075,-3.708,-3.7128,-3.7193,-3.7248,-3.7325,-3.7388,-3.7516,-3.7544,-3.7617,-3.7609,-3.7692,-3.762,-3.7619,-3.7612,-3.7608,-3.7616,-3.7706,-3.7708,-3.771,-3.7711,0,-3.6942,-3.6946,-3.7011,-3.708,-3.7135,-3.7189,-3.7241,-3.7279,-3.7291,-3.7346,-3.7427,-3.7476,-3.7572,-3.7649,-3.7721,-3.7751,-3.7735,-3.7734,-3.7756,-3.7758,-3.775,-3.7756,-3.7509,-3.7728,-3.7726,-3.7725,-3.7724,-3.7724,-3.7075,-3.7136,-3.7186,-3.726,-3.7299,-3.7348,-3.7409,-3.7433,-3.75,-3.7579,-3.7578,-3.7667,-3.7718,-3.7813,-3.7848,-3.7918,-3.7892,-3.7923,-3.7931,-3.7939,-3.7947,-3.7739,-3.7931,-3.7931,-3.793,-3.793,-3.793,0,-3.726,-3.7291,-3.7359,-3.7432,-3.749,-3.7468,-3.7525,-3.7576,-3.7654,-3.7703,-3.7765,-3.7858,-3.7934,-3.7969,-3.8043,-3.8093,-3.8088,-3.8113,-3.811,-3.8117,-3.7965,-3.794,-3.8116,-3.8116,-3.8116,-3.8116,-3.8116,-3.8116,-3.7364,-3.7467,-3.7478,-3.7601,-3.7631,-3.7718,-3.7752,-3.7798,-3.7837,-3.7942,-3.8005,-3.8026,-3.807,-3.8148,-3.8217,-3.8226,-3.8255,-3.8284,-3.8289,-3.8147,-3.8128,-3.811,-3.8085,-3.829,-3.829,-3.8435,-3.8436,-3.8437]}]]